Location: Unspecified
(0.0000°N, 0.0000°E)
Time: 05:29:22
(UTC+02:00)

Milstar 3 - Visible Passes

Search period start: 28 July 2015 00:00
Search period end: 07 August 2015 00:00
Orbit: 1095 x 5150 km, 28.2° (Epoch: 26 July)

Date Brightness Start Highest point End Pass type
(mag) Time Alt. Az. Time Alt. Az. Time Alt. Az.
28 Jul 5.6 04:18:40 22° SE 04:18:40 22° SE 04:23:47 10° SE visible
28 Jul 5.3 06:52:16 17° SW 07:00:45 28° S 07:19:39 10° SE visible
29 Jul 5.0 05:54:36 29° SSW 05:55:57 29° S 06:11:31 10° SE visible
29 Jul 5.7 20:28:28 10° NW 20:33:39 13° NNW 20:37:32 10° N visible
29 Jul 5.1 23:18:16 10° NNW 23:20:18 14° N 23:20:18 14° N visible
30 Jul 5.3 04:56:54 26° SSE 04:56:54 26° SSE 05:05:18 10° SE visible
30 Jul 5.6 07:32:02 10° SW 07:44:44 26° S 08:05:42 10° ESE visible
30 Jul 5.0 22:16:38 10° NNW 22:19:32 12° N 22:22:15 10° NNE visible
31 Jul 5.9 03:59:10 13° SE 03:59:10 13° SE 04:00:33 10° SE visible
31 Jul 5.3 06:32:46 18° SSW 06:39:10 24° S 06:55:27 10° SE visible
31 Jul 5.4 21:12:36 10° NNW 21:16:14 12° N 21:19:19 10° NNE visible
31 Jul 5.4 23:57:24 10° NNW 23:58:00 12° NNW 23:58:00 12° NNW visible
01 Aug 5.2 05:35:01 24° S 05:35:01 24° S 05:47:28 10° SE visible
01 Aug 4.8 22:55:48 10° NNW 23:00:06 19° N 23:00:06 19° N visible
02 Aug 5.6 04:37:14 18° SSE 04:37:14 18° SSE 04:41:41 10° SE visible
02 Aug 5.6 07:11:28 10° SW 07:22:55 24° S 07:41:50 10° ESE visible
02 Aug 4.9 21:53:19 10° NNW 21:58:29 15° N 22:02:12 11° NE visible
03 Aug 5.4 06:13:01 18° SSW 06:17:42 21° S 06:31:27 10° SE visible
03 Aug 5.3 20:48:54 10° NNW 20:55:09 15° N 20:59:59 10° NNE visible
03 Aug 5.0 23:35:27 10° NW 23:37:52 19° NNW 23:37:52 19° NNW visible
04 Aug 5.5 05:15:13 20° S 05:15:13 20° S 05:23:38 10° SE visible
04 Aug 4.4 22:33:16 10° NNW 22:39:59 24° NNE 22:39:59 24° NNE visible
05 Aug 5.9 04:17:23 12° SSE 04:17:23 12° SSE 04:18:17 10° SE visible
05 Aug 5.6 06:50:58 10° SW 07:01:11 23° SSE 07:18:07 10° ESE visible
05 Aug 4.8 21:30:09 10° NNW 21:37:26 20° N 21:42:07 12° NE visible
06 Aug 5.5 00:15:34 10° NW 00:15:41 10° NW 00:15:41 10° NW visible
06 Aug 5.4 05:53:07 17° S 05:56:20 19° S 06:07:40 10° SE visible
06 Aug 5.2 20:25:20 10° NW 20:34:02 18° N 20:40:14 10° NE visible
06 Aug 4.5 23:13:20 10° NW 23:17:49 28° NNW 23:17:49 28° NNW visible
